Location: Newark
(37.1692°N, 95.2017°W)
Time: 17:07:50
(UTC+00:00)

Envisat - Visible Passes

Search period start: 29 January 2020 00:00
Search period end: 08 February 2020 00:00
Orbit: 764 x 766 km, 98.1° (Epoch: 29 January)

Date Brightness Start Highest point End Pass type
(mag) Time Alt. Az. Time Alt. Az. Time Alt. Az.
29 Jan 6.2 01:39:11 10° WSW 01:41:34 13° W 01:43:57 10° WNW visible
29 Jan 5.5 12:08:51 10° NE 12:13:02 25° E 12:17:10 10° SSE visible
30 Jan 5.0 01:00:02 10° SSW 01:04:30 31° W 01:09:00 10° NW visible
30 Jan 6.5 11:35:12 10° E 11:35:54 10° E 11:36:36 10° E visible
31 Jan 3.3 00:22:33 10° S 00:27:37 74° WSW 00:32:42 10° NNW visible
31 Jan 4.3 12:33:45 10° NNE 12:38:38 45° E 12:43:29 10° S visible
01 Feb 5.9 01:26:52 10° SW 01:30:10 17° W 01:33:29 10° NW visible
01 Feb 5.9 11:57:59 10° NE 12:01:39 20° E 12:05:17 10° SE visible
02 Feb 4.5 00:48:25 10° SSW 00:53:09 40° W 00:57:55 10° NNW visible
03 Feb 3.0 00:11:15 10° SSE 00:16:19 87° ENE 00:21:26 10° NNW visible
03 Feb 4.8 12:22:39 10° NNE 12:27:18 35° E 12:31:55 10° SSE visible
04 Feb 5.6 01:14:53 10° SW 01:18:47 22° W 01:22:43 10° NW visible
04 Feb 6.2 11:47:20 10° ENE 11:50:15 15° E 11:53:10 10° SE visible
05 Feb 4.0 00:36:54 10° S 00:41:49 51° W 00:46:47 10° NNW visible
05 Feb 3.6 12:47:47 10° NNE 12:52:51 65° E 12:57:53 10° S visible
06 Feb 6.4 01:42:39 10° WSW 01:44:31 12° W 01:46:22 10° WNW visible
06 Feb 5.3 12:11:37 10° NE 12:15:57 28° E 12:20:15 10° SSE visible
07 Feb 5.2 01:03:05 10° SSW 01:07:25 28° W 01:11:46 10° NW visible
07 Feb 6.4 11:37:09 10° ENE 11:38:50 12° E 11:40:32 10° ESE visible
